Location: Bennemühlen
(52.5740°N, 9.7135°E)
Time: 18:31:05
(UTC+00:00)

A-11 Canister half - Pass Details

Date: 26 February 2026
Orbit: 1512 x 1687 km, 47.2° (Epoch: 8 March)

Event Time Altitude Azimuth Distance (km) Brightness Sun altitude
Rises 21:30:56 0° 269° (W) 4,942 12.1 -39.3°
Reaches altitude 10° 21:34:09 10° 267° (W) 3,948 11.5 -39.6°
Enters shadow 21:41:09 47° 245° (WSW) 2,103 9.6 -40.3°
Maximum altitude 21:44:06 64° 189° (S) 1,812 - -40.6°
Drops below altitude 10° 21:53:47 10° 112° (ESE) 3,843 - -41.4°
Sets 21:56:52 0° 109° (ESE) 4,805 - -41.7°
